SANTA FE DAM CA US current weather conditions

sailwx.info

Wind from 004 at 0 knots gusting 6

Air temperature 20.6° C
Dewpoint 9.5° C

Last reported at 2014-Oct-01 14:57 UTC.
Time now 2014-Oct-01 16:24 UTC

Location: N 34°08' W 117°57'.
View on Google Maps.

See reports from other nearby stations

  
Tides and Currents Weather Stations Pressure Air Temp Water Temp Dewpoint Dewpoint Depression Visibility Wind Speed Wind Dir Waves Ship Positions
date/time (UTC)wind fromknots sea level pressurealtimeterstation pressurevisibilityair tempwater tempwave heightnotes
2014-Oct-01 14:57 004 0 gusting 6 20.6
2014-Oct-01 13:57 026 0 gusting 2 15.6
2014-Oct-01 12:57 061 1 gusting 8 16.1
2014-Oct-01 11:57 026 1 gusting 6 17.2
2014-Oct-01 10:57 067 2 gusting 6 17.2
2014-Oct-01 09:57 039 1 gusting 6 16.7
2014-Oct-01 08:57 024 1 gusting 4 17.2
2014-Oct-01 07:57 15.6
2014-Oct-01 06:57 340 1 gusting 3 16.1
2014-Oct-01 05:57 237 0 gusting 3 17.2
2014-Oct-01 04:57 227 2 gusting 4 18.9
2014-Oct-01 03:57 210 3 gusting 6 21.1
2014-Oct-01 02:57 210 3 gusting 7 21.7
2014-Oct-01 01:57 219 3 gusting 10 25.6
2014-Oct-01 00:57 226 6 gusting 14 29.4
2014-Sep-30 23:57 240 7 gusting 14 31.1
2014-Sep-30 22:57 248 8 gusting 15 33.3
2014-Sep-30 21:57 229 7 gusting 17 34.4
2014-Sep-30 20:57 242 6 gusting 13 32.8
2014-Sep-30 19:57 239 6 gusting 13 32.8
2014-Sep-30 18:57 295 3 gusting 8 32.8
2014-Sep-30 17:57 160 3 gusting 6 30.6
2014-Sep-30 16:57 105 2 gusting 10 27.8
2014-Sep-30 15:57 146 2 gusting 5 25.0
2014-Sep-30 14:57 100 1 gusting 3 20.6
2014-Sep-30 13:57 015 1 gusting 3 14.4
2014-Sep-30 12:57 157 0 gusting 3 13.9
2014-Sep-30 11:57 046 1 gusting 3 14.4
2014-Sep-30 10:57 073 1 gusting 2 14.4
2014-Sep-30 09:57 112 0 gusting 2 15.6
2014-Sep-30 08:57 344 1 gusting 2 14.4
2014-Sep-30 07:57 024 1 gusting 39 15.0
2014-Sep-30 06:57 258 17 gusting 53 16.1
2014-Sep-30 05:57 212 1 gusting 49 17.2
2014-Sep-30 03:57 223 2 gusting 5 18.9
2014-Sep-30 02:57 226 2 gusting 5 20.6
2014-Sep-30 01:57 221 3 gusting 10 22.2
2014-Sep-30 00:57 223 6 gusting 13 26.1
2014-Sep-29 23:57 231 6 gusting 12 30.0
2014-Sep-29 22:57 222 6 gusting 13 30.0
2014-Sep-29 21:57 344 6 gusting 16 30.6
2014-Sep-29 20:57 222 6 gusting 16 30.0
2014-Sep-29 19:57 256 5 gusting 11 27.8
2014-Sep-29 18:57 214 4 gusting 11 27.2
2014-Sep-29 17:57 249 5 gusting 11 24.4
2014-Sep-29 16:57 213 3 gusting 7 24.4